Retour au catalogue

STARLINK-30560

ActifCommunicationsVLEO
NORAD 58038·PAYLOAD·🇺🇸 United States

Lancé Oct 9, 2023 depuis Vandenberg Space Force Base

Loading…

Prochains Passages (prochaines 24 heures)

TLE

FraisSource: CelesTrak SupGP

Époque: Sep 15, 2026, 03:24 UTC

1 58038C 23156L   26258.14215278 -.00018216  00000+0 -53804-3 0  2584
2 58038  53.1573 274.6223 0001151  92.8435 314.0178 15.34409751    19

Suivez STARLINK-30560 en temps réel avec AllMySat

Download on the App Store